Location: Hilton Head Island
(32.2163°N, 80.7526°W)
Time: 22:03:46
(UTC-04:00)

Tiros 1 despin weight - Pass Details

Date: 25 February 2026
Orbit: 556 x 593 km, 48.2° (Epoch: 13 March)

Event Time Altitude Azimuth Distance (km) Brightness Sun altitude
Rises 10:26:38 0° 200° (SSW) 2,773 ? 38.6°
Reaches altitude 10° 10:29:12 10° 187° (S) 1,871 ? 38.9°
Maximum altitude 10:32:42 25° 132° (SE) 1,173 ? 39.4°
Drops below altitude 10° 10:36:11 10° 77° (ENE) 1,859 ? 39.9°
Sets 10:38:44 0° 64° (ENE) 2,751 ? 40.2°
